Location: La Caridad
(21.3833°N, 77.9333°W)
Time: 08:02:29
(UTC+00:00)

Daily predictions for brighter satellites

Satellite Brightness Start Highest point End
(mag) Time Altitude Azimuth Time Altitude Azimuth Time Altitude Azimuth
SKYMED 2 3.7 22:50:45 10° NNE 22:55:01 56° E 22:59:15 10° S
SMAP 3.1 22:51:30 10° SSE 22:56:08 85° ENE 23:00:47 10° N
Cosmos 1553 Rocket 4.1 22:49:59 10° S 22:56:16 61° E 23:02:28 10° NNE
FengYun 1-2 T 4.5 22:52:40 10° SSE 22:58:06 50° ENE 23:03:32 10° N
Cosmos 2360 4.3 22:53:06 10° S 22:58:43 61° ESE 23:04:21 10° NNE
IUS-14 SRM-1 4.3 22:45:15 10° WSW 23:00:19 62° SSE 23:03:44 10° E
Timation 2 Rocket 4.4 22:55:16 10° N 23:01:46 48° ENE 23:08:21 10° SE
AQUARIUS 4.2 22:57:25 10° SSE 23:01:54 87° ENE 23:06:24 10° N
Cosmos 44 Rocket 3.4 23:03:03 10° SSW 23:07:41 78° WNW 23:12:28 10° NNE
Cosmos 1689 Rocket 1.9 23:05:00 10° NNE 23:07:52 83° ESE 23:10:43 10° S
Cosmos 1408 4.4 23:06:27 10° NE 23:08:13 13° E 23:09:59 10° ESE
Cosmos 2278 3.9 23:03:13 10° S 23:08:41 50° ESE 23:14:08 10° NNE
Cosmos 2058 Rocket 4.0 23:04:22 10° SSW 23:08:41 53° W 23:13:05 10° N
MOS 1 Rocket 4.4 23:09:44 10° NE 23:13:59 28° E 23:18:25 10° SSE
Cosmos 1953 Rocket 3.8 23:10:34 10° N 23:14:59 77° W 23:19:27 10° S
Cosmos 1939 Rocket 3.3 23:14:16 10° SE 23:18:01 39° ENE 23:21:42 10° N
Cosmos 2219 3.5 23:18:34 10° N 23:24:04 46° ENE 23:29:33 10° SE
Cosmos 1892 3.0 23:23:18 10° N 23:27:00 43° E 23:30:41 10° SSE
SL-08 R/B 4.4 23:24:12 10° N 23:30:14 63° E 23:36:14 10° SSE
Feng Yun 1-1 Rocket 4.3 23:24:38 10° SSE 23:30:27 77° ENE 23:36:22 10° N
Cosmos 968 Rocket 4.0 23:26:10 10° N 23:30:51 35° ENE 23:35:29 10° SE
OAO 3 Rocket 3.6 23:27:15 10° NW 23:31:50 44° NNE 23:34:33 22° E
IRS-1C Rocket 4.1 23:27:28 10° SSE 23:32:38 61° ENE 23:37:48 10° N
Cosmos-2242 3.9 23:32:07 10° SSE 23:35:39 26° E 23:36:54 23° ENE
Helios 1A Rocket 3.3 23:32:45 10° SE 23:36:38 41° ENE 23:40:30 10° N
CZ-2C R/B 4.1 23:38:06 17° ESE 23:38:06 17° ESE 23:40:25 10° SE
Cosmos 1745 Rocket 4.2 23:31:06 10° N 23:37:11 49° E 23:43:17 10° SSE
CZ-4 R/B 4.4 23:36:42 10° SSE 23:40:47 60° ENE 23:44:52 10° N
Delta 198 4.3 23:35:40 10° WNW 23:40:55 62° N 23:44:28 25° ENE
CZ-2D R/B 3.2 23:37:18 10° SSE 23:41:02 57° ENE 23:44:46 10° N
YAOGAN 1 3.2 23:38:45 10° SE 23:42:38 33° ENE 23:46:30 10° N
Cosmos 967 Rocket 4.4 23:36:22 10° SSW 23:42:47 82° ESE 23:49:12 10° NNE
COSMO-SKYMED 1 4.5 23:39:06 10° NNW 23:42:56 31° WNW 23:46:45 10° SW
Delta 2 Rocket 4.3 23:40:13 10° NW 23:45:16 48° NNE 23:47:47 28° E
SL-16 R/B 3.3 23:41:07 10° SSE 23:45:18 23° ESE 23:45:18 23° ESE
CZ-4 R/B 1.5 23:43:00 10° SSE 23:46:44 44° ENE 23:50:26 10° N
Hubble Space Telescope 3.6 23:46:55 10° WSW 23:48:44 13° SSW 23:50:31 10° S
Cosmos 1812 Rocket 3.7 23:44:33 10° S 23:48:58 75° W 23:53:22 10° N
SEDSat Delta rocket 4.0 23:42:34 10° WSW 23:49:23 89° SSE 23:53:04 28° ENE
USA 281 4.0 23:45:41 10° S 23:52:01 53° WSW 23:58:24 10° NNW
Cosmos 1340 4.0 23:49:13 10° NNW 23:52:47 41° W 23:56:19 10° SSW
